Погода в Кронплатце

Италия     46°43′08″N   11°55′08″E
темп.,
°C
ветер,
м/с
пор.,
м/с
влажн.,
%
обл.,
%
осадки,
мм/ч
давл.,
гПа
погр.,
м
6 мая, чт
чт623:00−4всв119431 0.0 101624
02:00−6в119439 0.0 101816
05:00−6в119265 0.0 101824
08:00−1св0179100 0.0 1015227
11:00+5сз117263 0.1 1011777
14:00+4ююв2391100 0.7 1009517
17:00+5ю128297 0.8 1007682
20:00+3юв239582 1.3 1009150
7 мая, пт
пт723:00+1юв129695 0.1 101162
02:00+1вюв129689 0.1 101068
05:00+1в119787 0.1 100944
08:00+2сз1198100 0.8 1009192
11:00+2з2299100 1.4 1009300
14:00+4всв018979 3.1 1010381
17:00+5ссз347828 1.5 1010728
20:000с22894 1.6 101638
8 мая, сб
сб823:00−4св119316 0.0 102218
02:00−5всв119114 0.0 102417
05:00−6в118895 0.0 102515
08:000в00685 0.0 1023237
11:00+7зюз11455 0.0 10181003
14:00+11сз123875 0.0 10161595
17:00+10сз223863 0.0 10161526
20:00+5ююв1175100 0.0 101817
9 мая, вс
вс923:00+1юв119576 0.0 102312
02:000ююв019623 0.0 102411
05:00−1в119728 0.0 102411
08:00+3зсз008226 0.0 1022270
11:00+11зсз12562 0.0 1017843
14:00+15ю134732 0.0 10141547
17:00+14ююв335287 0.0 10141402
20:00+8ююв238472 0.0 101774
10 мая, пн
пн1023:00+6ююв119173 0.0 101833
02:00+3ю119790 0.0 102025
05:00+3ююз119745 0.0 102049
08:00+6сз118651 0.0 1019314
11:00+13зсз12594 0.0 1015869
14:00+17з254983 0.0 10121526
17:00+17ю394865 0.3 10112122
20:00+11ююв23876 0.9 101375